sat.trackr.live / text

‹ back to catalog

STARLINK-37637

NORAD 69026 · 2026-101B

PAYLOAD ACTIVE UNKNOWN

§ Identity

Operator
Country
US
Launch date
2026-05-06
Launch site
AFWTR
Launch vehicle
Mass (kg)
RCS (m²)

Purposes: comms

External: N2YO · Heavens-Above · Gunter

§ Orbital elements

Epoch: 2026-05-24T12:24:03.595392Z

Period
91.54 min
Inclination
97.2845°
Eccentricity
0.0001086
Mean motion
15.73159547 rev/d
Perigee alt
349.1 km
Apogee alt
350.6 km
Semi-major
6,728.0 km
B*
-6.3219e-3
RAAN
359.2260°
Arg perigee
89.2250°
Mean anomaly
270.9138°
Rev number
291

§ Raw data

STARLINK-376371 69026U 26101B   26144.51670828 -.00788289  00000+0 -63219-2 0  99932 69026  97.2845 359.2260 0001086  89.2250 270.9138 15.73159547  2917

JSON: /api/v1/satellites/69026 · /tle

For live sub-satellite position, see the globe view (requires WebGL).

§ Visibility from observer

Set your observer location to see the next 7 days of passes ≥ 10°. The values pass through the URL so the page stays shareable.

No JS? Fill the form by hand. The geolocation button needs JavaScript.